Time,TemperatureF,DewpointF,PressureIn,WindDirection,WindDirectionDegrees,WindSpeedMPH,WindSpeedGustMPH,Humidity,HourlyPrecipIn,Conditions,Clouds,dailyrainin,SoftwareType,DateUTC
2013-03-28 00:00:00,37.3,28.1,30.26,SE,134,0.0,9.0,69,0.00,,,0.00,VWS V14.00,2013-03-28 05:00:00,
2013-03-28 00:05:00,37.3,28.1,30.26,SE,134,0.0,1.0,69,0.00,,,0.00,VWS V14.00,2013-03-28 05:05:00,
2013-03-28 00:10:00,37.1,28.2,30.25,SE,133,0.0,3.0,70,0.00,,,0.00,VWS V14.00,2013-03-28 05:10:00,
2013-03-28 00:15:00,36.9,28.0,30.25,ESE,117,3.0,5.0,70,0.00,,,0.00,VWS V14.00,2013-03-28 05:15:00,
2013-03-28 00:20:00,36.6,27.8,30.25,ESE,111,4.0,6.0,70,0.00,,,0.00,VWS V14.00,2013-03-28 05:20:00,
2013-03-28 00:25:00,36.4,27.9,30.25,SE,126,0.0,6.0,71,0.00,,,0.00,VWS V14.00,2013-03-28 05:25:00,
2013-03-28 00:30:00,36.2,27.7,30.25,SE,126,3.0,6.0,71,0.00,,,0.00,VWS V14.00,2013-03-28 05:30:00,
2013-03-28 00:35:00,36.1,27.6,30.25,ESE,107,0.0,0.0,71,0.00,,,0.00,VWS V14.00,2013-03-28 05:35:00,
2013-03-28 00:40:00,35.9,27.8,30.25,ESE,122,0.0,6.0,72,0.00,,,0.00,VWS V14.00,2013-03-28 05:40:00,
2013-03-28 00:45:00,35.8,27.7,30.25,SE,128,0.0,6.0,72,0.00,,,0.00,VWS V14.00,2013-03-28 05:45:00,
2013-03-28 00:50:00,35.7,27.6,30.25,SE,136,0.0,6.0,72,0.00,,,0.00,VWS V14.00,2013-03-28 05:50:00,
2013-03-28 00:55:00,35.7,27.9,30.25,SE,146,3.0,6.0,73,0.00,,,0.00,VWS V14.00,2013-03-28 05:55:00,
2013-03-28 01:00:00,35.7,27.9,30.25,SE,143,2.0,6.0,73,0.00,,,0.00,VWS V14.00,2013-03-28 06:00:00,
2013-03-28 01:05:00,35.6,27.8,30.25,SE,134,2.0,3.0,73,0.00,,,0.00,VWS V14.00,2013-03-28 06:05:00,
2013-03-28 01:10:00,35.6,27.8,30.25,SE,133,1.0,4.0,73,0.00,,,0.00,VWS V14.00,2013-03-28 06:10:00,
2013-03-28 01:15:00,35.4,28.0,30.25,SE,142,3.0,4.0,74,0.00,,,0.00,VWS V14.00,2013-03-28 06:15:00,
2013-03-28 01:20:00,35.2,27.8,30.25,SE,130,0.0,4.0,74,0.00,,,0.00,VWS V14.00,2013-03-28 06:20:00,
2013-03-28 01:25:00,35.0,27.6,30.25,SE,124,0.0,4.0,74,0.00,,,0.00,VWS V14.00,2013-03-28 06:25:00,
2013-03-28 01:30:00,34.7,27.3,30.25,ESE,113,4.0,4.0,74,0.00,,,0.00,VWS V14.00,2013-03-28 06:30:00,
2013-03-28 01:35:00,34.4,27.3,30.25,SE,126,0.0,0.0,75,0.00,,,0.00,VWS V14.00,2013-03-28 06:35:00,
2013-03-28 01:40:00,34.4,27.3,30.25,SE,128,0.0,4.0,75,0.00,,,0.00,VWS V14.00,2013-03-28 06:40:00,
2013-03-28 01:45:00,34.4,27.6,30.25,SE,134,0.0,4.0,76,0.00,,,0.00,VWS V14.00,2013-03-28 06:45:00,
2013-03-28 01:50:00,34.4,27.6,30.25,SE,130,0.0,6.0,76,0.00,,,0.00,VWS V14.00,2013-03-28 06:50:00,
2013-03-28 01:55:00,34.3,27.5,30.25,ESE,114,0.0,6.0,76,0.00,,,0.00,VWS V14.00,2013-03-28 06:55:00,
2013-03-28 02:00:00,34.1,27.3,30.25,ESE,119,0.0,6.0,76,0.00,,,0.00,VWS V14.00,2013-03-28 07:00:00,
2013-03-28 02:05:00,34.0,27.6,30.25,SE,130,0.0,0.0,77,0.00,,,0.00,VWS V14.00,2013-03-28 07:05:00,
2013-03-28 02:10:00,33.9,27.5,30.25,SE,131,0.0,4.0,77,0.00,,,0.00,VWS V14.00,2013-03-28 07:10:00,
2013-03-28 02:15:00,33.8,27.4,30.25,SE,126,0.0,4.0,77,0.00,,,0.00,VWS V14.00,2013-03-28 07:15:00,
2013-03-28 02:20:00,33.7,27.3,30.25,SE,126,0.0,4.0,77,0.00,,,0.00,VWS V14.00,2013-03-28 07:20:00,
2013-03-28 02:25:00,33.6,27.2,30.25,SE,126,0.0,4.0,77,0.00,,,0.00,VWS V14.00,2013-03-28 07:25:00,
2013-03-28 02:30:00,33.4,27.0,30.25,SE,127,1.0,4.0,77,0.00,,,0.00,VWS V14.00,2013-03-28 07:30:00,
2013-03-28 02:35:00,33.3,27.2,30.25,SE,125,0.0,0.0,78,0.00,,,0.00,VWS V14.00,2013-03-28 07:35:00,
2013-03-28 02:40:00,33.2,27.1,30.25,SSE,149,0.0,5.0,78,0.00,,,0.00,VWS V14.00,2013-03-28 07:40:00,
2013-03-28 02:45:00,33.1,27.0,30.25,ESE,122,0.0,5.0,78,0.00,,,0.00,VWS V14.00,2013-03-28 07:45:00,
2013-03-28 02:50:00,33.0,26.9,30.25,ESE,115,2.0,5.0,78,0.00,,,0.00,VWS V14.00,2013-03-28 07:50:00,
2013-03-28 02:55:00,32.8,27.0,30.24,ESE,102,0.0,5.0,79,0.00,,,0.00,VWS V14.00,2013-03-28 07:55:00,
2013-03-28 03:00:00,32.6,26.8,30.24,ESE,121,0.0,5.0,79,0.00,,,0.00,VWS V14.00,2013-03-28 08:00:00,
2013-03-28 03:05:00,32.4,26.6,30.25,ESE,105,0.0,0.0,79,0.00,,,0.00,VWS V14.00,2013-03-28 08:05:00,
2013-03-28 03:10:00,32.4,26.6,30.25,ESE,119,0.0,4.0,79,0.00,,,0.00,VWS V14.00,2013-03-28 08:10:00,
2013-03-28 03:15:00,32.3,26.8,30.25,SE,134,0.0,4.0,80,0.00,,,0.00,VWS V14.00,2013-03-28 08:15:00,
2013-03-28 03:20:00,32.3,26.8,30.24,SE,129,0.0,4.0,80,0.00,,,0.00,VWS V14.00,2013-03-28 08:20:00,
2013-03-28 03:25:00,32.2,26.7,30.24,SE,129,0.0,4.0,80,0.00,,,0.00,VWS V14.00,2013-03-28 08:25:00,
2013-03-28 03:30:00,32.1,26.6,30.24,SE,130,0.0,4.0,80,0.00,,,0.00,VWS V14.00,2013-03-28 08:30:00,
2013-03-28 03:35:00,32.1,26.6,30.24,SE,130,0.0,0.0,80,0.00,,,0.00,VWS V14.00,2013-03-28 08:35:00,
2013-03-28 03:40:00,32.0,26.5,30.24,SE,130,0.0,0.0,80,0.00,,,0.00,VWS V14.00,2013-03-28 08:40:00,
2013-03-28 03:45:00,31.9,26.7,30.24,SE,125,0.0,3.0,81,0.00,,,0.00,VWS V14.00,2013-03-28 08:45:00,
2013-03-28 03:50:00,31.7,26.5,30.23,ESE,119,0.0,3.0,81,0.00,,,0.00,VWS V14.00,2013-03-28 08:50:00,
2013-03-28 03:55:00,31.5,26.4,30.24,ESE,119,0.0,3.0,81,0.00,,,0.00,VWS V14.00,2013-03-28 08:55:00,
2013-03-28 04:00:00,31.4,26.2,30.24,ESE,120,0.0,3.0,81,0.00,,,0.00,VWS V14.00,2013-03-28 09:00:00,
2013-03-28 04:05:00,31.3,26.2,30.24,ESE,120,0.0,3.0,81,0.00,,,0.00,VWS V14.00,2013-03-28 09:05:00,
2013-03-28 04:10:00,31.2,26.1,30.24,ESE,120,0.0,0.0,81,0.00,,,0.00,VWS V14.00,2013-03-28 09:10:00,
2013-03-28 04:15:00,31.1,26.3,30.24,ESE,119,0.0,0.0,82,0.00,,,0.00,VWS V14.00,2013-03-28 09:15:00,
2013-03-28 04:20:00,31.0,26.2,30.24,ESE,120,0.0,0.0,82,0.00,,,0.00,VWS V14.00,2013-03-28 09:20:00,
2013-03-28 04:25:00,30.9,26.1,30.24,ESE,119,0.0,0.0,82,0.00,,,0.00,VWS V14.00,2013-03-28 09:25:00,
2013-03-28 04:30:00,30.8,26.0,30.23,ESE,120,0.0,0.0,82,0.00,,,0.00,VWS V14.00,2013-03-28 09:30:00,
2013-03-28 04:35:00,30.7,25.9,30.23,ESE,120,0.0,0.0,82,0.00,,,0.00,VWS V14.00,2013-03-28 09:35:00,
2013-03-28 04:40:00,30.6,25.8,30.23,ESE,117,0.0,4.0,82,0.00,,,0.00,VWS V14.00,2013-03-28 09:40:00,
2013-03-28 04:45:00,30.5,26.0,30.23,ESE,109,0.0,4.0,83,0.00,,,0.00,VWS V14.00,2013-03-28 09:45:00,
2013-03-28 04:49:00,30.4,25.9,30.22,ESE,109,0.0,4.0,83,0.00,,,0.00,VWS V14.00,2013-03-28 09:49:00,
2013-03-28 04:54:00,30.3,25.8,30.23,ESE,109,0.0,4.0,83,0.00,,,0.00,VWS V14.00,2013-03-28 09:54:00,
2013-03-28 04:59:00,30.2,26.0,30.23,ESE,109,0.0,4.0,84,0.00,,,0.00,VWS V14.00,2013-03-28 09:59:00,
2013-03-28 05:04:00,30.2,26.0,30.23,ESE,109,0.0,4.0,84,0.00,,,0.00,VWS V14.00,2013-03-28 10:04:00,
2013-03-28 05:09:00,30.1,25.9,30.23,ESE,109,0.0,0.0,84,0.00,,,0.00,VWS V14.00,2013-03-28 10:09:00,
2013-03-28 05:14:00,30.1,25.9,30.23,ESE,109,0.0,0.0,84,0.00,,,0.00,VWS V14.00,2013-03-28 10:14:00,
2013-03-28 05:19:00,30.1,25.9,30.23,ESE,109,0.0,0.0,84,0.00,,,0.00,VWS V14.00,2013-03-28 10:19:00,
2013-03-28 05:24:00,30.1,26.1,30.23,ESE,109,0.0,0.0,85,0.00,,,0.00,VWS V14.00,2013-03-28 10:24:00,
2013-03-28 05:29:00,30.1,26.1,30.23,ESE,109,0.0,0.0,85,0.00,,,0.00,VWS V14.00,2013-03-28 10:29:00,
2013-03-28 05:34:00,30.1,26.1,30.23,ESE,109,0.0,0.0,85,0.00,,,0.00,VWS V14.00,2013-03-28 10:34:00,
2013-03-28 05:39:00,30.1,26.1,30.23,ESE,109,0.0,3.0,85,0.00,,,0.00,VWS V14.00,2013-03-28 10:39:00,
2013-03-28 05:44:00,30.1,26.1,30.23,ESE,109,0.0,3.0,85,0.00,,,0.00,VWS V14.00,2013-03-28 10:44:00,
2013-03-28 05:49:00,30.1,26.1,30.23,ESE,109,0.0,3.0,85,0.00,,,0.00,VWS V14.00,2013-03-28 10:49:00,
2013-03-28 05:54:00,30.1,26.4,30.23,ESE,109,0.0,3.0,86,0.00,,,0.00,VWS V14.00,2013-03-28 10:54:00,
2013-03-28 05:59:00,30.2,26.5,30.23,ESE,109,0.0,3.0,86,0.00,,,0.00,VWS V14.00,2013-03-28 10:59:00,
2013-03-28 06:04:00,30.2,26.5,30.23,ESE,109,0.0,3.0,86,0.00,,,0.00,VWS V14.00,2013-03-28 11:04:00,
2013-03-28 06:09:00,30.2,26.5,30.24,ESE,109,0.0,1.0,86,0.00,,,0.00,VWS V14.00,2013-03-28 11:09:00,
2013-03-28 06:14:00,30.3,26.6,30.24,ESE,109,0.0,1.0,86,0.00,,,0.00,VWS V14.00,2013-03-28 11:14:00,
2013-03-28 06:19:00,30.3,26.6,30.24,ESE,109,0.0,1.0,86,0.00,,,0.00,VWS V14.00,2013-03-28 11:19:00,
2013-03-28 06:24:00,30.3,26.6,30.24,ESE,109,0.0,1.0,86,0.00,,,0.00,VWS V14.00,2013-03-28 11:24:00,
2013-03-28 06:29:00,30.3,26.6,30.24,ESE,109,0.0,1.0,86,0.00,,,0.00,VWS V14.00,2013-03-28 11:29:00,
2013-03-28 06:34:00,30.3,26.6,30.24,ESE,109,0.0,1.0,86,0.00,,,0.00,VWS V14.00,2013-03-28 11:34:00,
2013-03-28 06:39:00,30.2,26.5,30.24,ESE,109,0.0,0.0,86,0.00,,,0.00,VWS V14.00,2013-03-28 11:39:00,
2013-03-28 06:44:00,30.2,26.5,30.24,ESE,109,0.0,0.0,86,0.00,,,0.00,VWS V14.00,2013-03-28 11:44:00,
2013-03-28 06:49:00,30.2,26.5,30.24,ESE,109,0.0,0.0,86,0.00,,,0.00,VWS V14.00,2013-03-28 11:49:00,
2013-03-28 06:54:00,30.1,26.4,30.24,ESE,109,0.0,0.0,86,0.00,,,0.00,VWS V14.00,2013-03-28 11:54:00,
2013-03-28 06:59:00,30.1,26.4,30.23,ESE,109,0.0,0.0,86,0.00,,,0.00,VWS V14.00,2013-03-28 11:59:00,
2013-03-28 07:04:00,29.9,26.2,30.23,ESE,109,0.0,0.0,86,0.00,,,0.00,VWS V14.00,2013-03-28 12:04:00,
2013-03-28 07:09:00,29.8,26.1,30.23,ESE,109,0.0,0.0,86,0.00,,,0.00,VWS V14.00,2013-03-28 12:09:00,
2013-03-28 07:14:00,29.7,26.0,30.23,ESE,109,0.0,0.0,86,0.00,,,0.00,VWS V14.00,2013-03-28 12:14:00,
2013-03-28 07:19:00,29.6,25.9,30.23,ESE,109,0.0,0.0,86,0.00,,,0.00,VWS V14.00,2013-03-28 12:19:00,
2013-03-28 07:24:00,29.5,26.1,30.23,ESE,109,0.0,0.0,87,0.00,,,0.00,VWS V14.00,2013-03-28 12:24:00,
2013-03-28 07:29:00,29.4,26.0,30.23,ESE,109,0.0,0.0,87,0.00,,,0.00,VWS V14.00,2013-03-28 12:29:00,
2013-03-28 07:34:00,29.4,26.0,30.23,ESE,109,0.0,0.0,87,0.00,,,0.00,VWS V14.00,2013-03-28 12:34:00,
2013-03-28 07:39:00,29.4,26.0,30.23,ESE,109,0.0,0.0,87,0.00,,,0.00,VWS V14.00,2013-03-28 12:39:00,
2013-03-28 07:44:00,29.4,26.0,30.23,ESE,109,0.0,0.0,87,0.00,,,0.00,VWS V14.00,2013-03-28 12:44:00,
2013-03-28 07:49:00,29.4,26.0,30.23,ESE,109,0.0,0.0,87,0.00,,,0.00,VWS V14.00,2013-03-28 12:49:00,
2013-03-28 07:54:00,29.6,26.2,30.24,ESE,109,0.0,0.0,87,0.00,,,0.00,VWS V14.00,2013-03-28 12:54:00,
2013-03-28 07:59:00,29.8,26.4,30.24,ESE,109,0.0,0.0,87,0.00,,,0.00,VWS V14.00,2013-03-28 12:59:00,
2013-03-28 08:04:00,30.1,27.0,30.24,ESE,109,0.0,0.0,88,0.00,,,0.00,VWS V14.00,2013-03-28 13:04:00,
2013-03-28 08:09:00,30.4,27.3,30.24,ESE,109,0.0,0.0,88,0.00,,,0.00,VWS V14.00,2013-03-28 13:09:00,
2013-03-28 08:14:00,30.8,27.7,30.24,SE,132,2.0,4.0,88,0.00,,,0.00,VWS V14.00,2013-03-28 13:14:00,
2013-03-28 08:19:00,31.3,27.9,30.24,SE,135,0.0,4.0,87,0.00,,,0.00,VWS V14.00,2013-03-28 13:19:00,
2013-03-28 08:24:00,31.6,28.2,30.24,SSE,148,2.0,5.0,87,0.00,,,0.00,VWS V14.00,2013-03-28 13:24:00,
2013-03-28 08:29:00,32.0,28.3,30.25,SSE,147,0.0,5.0,86,0.00,,,0.00,VWS V14.00,2013-03-28 13:29:00,
2013-03-28 08:34:00,32.4,30.3,30.25,SE,130,3.0,5.0,92,0.00,,,0.00,VWS V14.00,2013-03-28 13:34:00,
2013-03-28 08:39:00,32.8,29.1,30.25,ESE,121,0.0,4.0,86,0.00,,,0.00,VWS V14.00,2013-03-28 13:39:00,
2013-03-28 08:44:00,33.2,29.2,30.25,ESE,119,0.0,5.0,85,0.00,,,0.00,VWS V14.00,2013-03-28 13:44:00,
2013-03-28 08:49:00,33.7,29.7,30.25,ESE,112,4.0,5.0,85,0.00,,,0.00,VWS V14.00,2013-03-28 13:49:00,
2013-03-28 08:54:00,34.3,30.0,30.25,ESE,113,3.0,6.0,84,0.00,,,0.00,VWS V14.00,2013-03-28 13:54:00,
2013-03-28 08:59:00,34.6,30.3,30.25,East,99,4.0,6.0,84,0.00,,,0.00,VWS V14.00,2013-03-28 13:59:00,
2013-03-28 09:04:00,35.2,30.6,30.24,ESE,107,4.0,10.0,83,0.00,,,0.00,VWS V14.00,2013-03-28 14:04:00,
2013-03-28 09:09:00,35.8,30.9,30.24,SE,126,3.0,9.0,82,0.00,,,0.00,VWS V14.00,2013-03-28 14:09:00,
2013-03-28 09:14:00,36.3,31.0,30.24,ESE,119,5.0,9.0,81,0.00,,,0.00,VWS V14.00,2013-03-28 14:14:00,
2013-03-28 09:19:00,36.8,31.2,30.25,East,88,3.0,9.0,80,0.00,,,0.00,VWS V14.00,2013-03-28 14:19:00,
2013-03-28 09:24:00,37.4,31.8,30.25,ESE,102,2.0,9.0,80,0.00,,,0.00,VWS V14.00,2013-03-28 14:24:00,
2013-03-28 09:29:00,37.9,32.0,30.25,ESE,117,1.0,9.0,79,0.00,,,0.00,VWS V14.00,2013-03-28 14:29:00,
2013-03-28 09:34:00,38.5,32.2,30.25,ESE,106,0.0,9.0,78,0.00,,,0.00,VWS V14.00,2013-03-28 14:34:00,
2013-03-28 09:39:00,39.0,32.4,30.25,ESE,116,2.0,6.0,77,0.00,,,0.00,VWS V14.00,2013-03-28 14:39:00,
2013-03-28 09:44:00,39.4,32.5,30.25,ESE,103,0.0,6.0,76,0.00,,,0.00,VWS V14.00,2013-03-28 14:44:00,
2013-03-28 09:49:00,39.9,32.6,30.25,East,98,0.0,6.0,75,0.00,,,0.00,VWS V14.00,2013-03-28 14:49:00,
2013-03-28 09:54:00,40.6,33.0,30.25,ESE,119,2.0,6.0,74,0.00,,,0.00,VWS V14.00,2013-03-28 14:54:00,
2013-03-28 09:59:00,41.1,32.8,30.25,East,83,0.0,6.0,72,0.00,,,0.00,VWS V14.00,2013-03-28 14:59:00,
2013-03-28 10:04:00,41.5,33.2,30.25,East,91,4.0,6.0,72,0.00,,,0.00,VWS V14.00,2013-03-28 15:04:00,
2013-03-28 10:09:00,41.8,33.1,30.25,ESE,115,0.0,6.0,71,0.00,,,0.00,VWS V14.00,2013-03-28 15:09:00,
2013-03-28 10:14:00,42.2,33.1,30.25,ESE,112,0.0,6.0,70,0.00,,,0.00,VWS V14.00,2013-03-28 15:14:00,
2013-03-28 10:19:00,42.7,33.2,30.26,ESE,109,0.0,6.0,69,0.00,,,0.00,VWS V14.00,2013-03-28 15:19:00,
2013-03-28 10:24:00,43.3,33.5,30.26,SE,144,4.0,7.0,68,0.00,,,0.00,VWS V14.00,2013-03-28 15:24:00,
2013-03-28 10:29:00,43.8,33.9,30.25,ESE,110,2.0,7.0,68,0.00,,,0.00,VWS V14.00,2013-03-28 15:29:00,
2013-03-28 10:33:00,44.4,33.8,30.26,SE,136,4.0,7.0,66,0.00,,,0.00,VWS V14.00,2013-03-28 15:33:00,
2013-03-28 10:38:00,44.7,33.7,30.25,East,87,4.0,5.0,65,0.00,,,0.00,VWS V14.00,2013-03-28 15:38:00,
2013-03-28 10:43:00,45.2,33.4,30.25,East,96,0.0,5.0,63,0.00,,,0.00,VWS V14.00,2013-03-28 15:43:00,
2013-03-28 10:48:00,45.9,34.0,30.25,ESE,104,0.0,5.0,63,0.00,,,0.00,VWS V14.00,2013-03-28 15:48:00,
2013-03-28 10:53:00,46.5,33.8,30.25,East,98,3.0,5.0,61,0.00,,,0.00,VWS V14.00,2013-03-28 15:53:00,
2013-03-28 10:58:00,46.7,33.6,30.25,SE,126,2.0,5.0,60,0.00,,,0.00,VWS V14.00,2013-03-28 15:58:00,
2013-03-28 11:03:00,47.0,33.4,30.25,East,96,0.0,5.0,59,0.00,,,0.00,VWS V14.00,2013-03-28 16:03:00,
2013-03-28 11:08:00,47.6,34.0,30.25,East,94,2.0,4.0,59,0.00,,,0.00,VWS V14.00,2013-03-28 16:08:00,
2013-03-28 11:13:00,48.2,34.1,30.25,ESE,108,1.0,4.0,58,0.00,,,0.00,VWS V14.00,2013-03-28 16:13:00,
2013-03-28 11:18:00,48.9,33.9,30.25,East,89,2.0,6.0,56,0.00,,,0.00,VWS V14.00,2013-03-28 16:18:00,
2013-03-28 11:23:00,49.4,33.9,30.25,ESE,103,0.0,6.0,55,0.00,,,0.00,VWS V14.00,2013-03-28 16:23:00,
2013-03-28 11:28:00,49.7,33.8,30.24,ESE,111,0.0,6.0,54,0.00,,,0.00,VWS V14.00,2013-03-28 16:28:00,
2013-03-28 11:33:00,50.4,34.4,30.24,East,101,0.0,6.0,54,0.00,,,0.00,VWS V14.00,2013-03-28 16:33:00,
2013-03-28 11:38:00,51.1,35.0,30.24,East,99,4.0,6.0,54,0.00,,,0.00,VWS V14.00,2013-03-28 16:38:00,
2013-03-28 11:43:00,52.0,34.9,30.24,ENE,74,1.0,6.0,52,0.00,,,0.00,VWS V14.00,2013-03-28 16:43:00,
2013-03-28 11:48:00,53.1,35.0,30.24,SE,128,5.0,6.0,50,0.00,,,0.00,VWS V14.00,2013-03-28 16:48:00,
2013-03-28 11:53:00,53.4,34.7,30.23,East,91,2.0,9.0,49,0.00,,,0.00,VWS V14.00,2013-03-28 16:53:00,
2013-03-28 11:58:00,53.2,34.0,30.24,East,90,3.0,9.0,48,0.00,,,0.00,VWS V14.00,2013-03-28 16:58:00,
2013-03-28 12:03:00,53.0,33.8,30.24,East,84,6.0,11.0,48,0.00,,,0.00,VWS V14.00,2013-03-28 17:03:00,
2013-03-28 12:08:00,53.3,34.1,30.23,East,84,4.0,7.0,48,0.00,,,0.00,VWS V14.00,2013-03-28 17:08:00,
2013-03-28 12:13:00,53.9,34.2,30.24,East,84,0.0,7.0,47,0.00,,,0.00,VWS V14.00,2013-03-28 17:13:00,
2013-03-28 12:18:00,54.3,34.0,30.23,ENE,78,2.0,10.0,46,0.00,,,0.00,VWS V14.00,2013-03-28 17:18:00,
2013-03-28 12:23:00,54.6,33.7,30.24,East,86,2.0,10.0,45,0.00,,,0.00,VWS V14.00,2013-03-28 17:23:00,
2013-03-28 12:28:00,54.5,34.2,30.24,East,85,5.0,10.0,46,0.00,,,0.00,VWS V14.00,2013-03-28 17:28:00,
2013-03-28 12:33:00,54.3,33.4,30.24,ENE,69,0.0,10.0,45,0.00,,,0.00,VWS V14.00,2013-03-28 17:33:00,
2013-03-28 12:38:00,54.2,33.3,30.24,East,84,3.0,5.0,45,0.00,,,0.00,VWS V14.00,2013-03-28 17:38:00,
2013-03-28 12:43:00,54.6,33.7,30.24,ESE,112,0.0,7.0,45,0.00,,,0.00,VWS V14.00,2013-03-28 17:43:00,
2013-03-28 12:48:00,54.9,34.0,30.23,East,101,0.0,7.0,45,0.00,,,0.00,VWS V14.00,2013-03-28 17:48:00,
2013-03-28 12:53:00,54.5,33.0,30.23,East,93,1.0,7.0,44,0.00,,,0.00,VWS V14.00,2013-03-28 17:53:00,
2013-03-28 12:58:00,54.3,33.4,30.23,East,87,4.0,9.0,45,0.00,,,0.00,VWS V14.00,2013-03-28 17:58:00,
2013-03-28 13:03:00,54.4,33.5,30.22,East,91,3.0,9.0,45,0.00,,,0.00,VWS V14.00,2013-03-28 18:03:00,
2013-03-28 13:08:00,54.5,33.6,30.22,East,90,5.0,7.0,45,0.00,,,0.00,VWS V14.00,2013-03-28 18:08:00,
2013-03-28 13:13:00,54.6,33.7,30.22,East,101,7.0,11.0,45,0.00,,,0.00,VWS V14.00,2013-03-28 18:13:00,
2013-03-28 13:18:00,55.0,33.5,30.21,East,88,4.0,11.0,44,0.00,,,0.00,VWS V14.00,2013-03-28 18:18:00,
2013-03-28 13:23:00,55.6,34.0,30.21,NNE,32,3.0,11.0,44,0.00,,,0.00,VWS V14.00,2013-03-28 18:23:00,
2013-03-28 13:28:00,56.0,33.2,30.21,SE,126,0.0,13.0,42,0.00,,,0.00,VWS V14.00,2013-03-28 18:28:00,
2013-03-28 13:33:00,56.4,34.2,30.21,SE,133,3.0,13.0,43,0.00,,,0.00,VWS V14.00,2013-03-28 18:33:00,
2013-03-28 13:38:00,57.4,34.5,30.21,East,84,7.0,9.0,42,0.00,,,0.00,VWS V14.00,2013-03-28 18:38:00,
2013-03-28 13:43:00,57.3,33.8,30.21,ENE,78,6.0,12.0,41,0.00,,,0.00,VWS V14.00,2013-03-28 18:43:00,
2013-03-28 13:48:00,57.0,33.5,30.21,ENE,76,0.0,13.0,41,0.00,,,0.00,VWS V14.00,2013-03-28 18:48:00,
2013-03-28 13:53:00,57.1,34.2,30.21,East,88,3.0,13.0,42,0.00,,,0.00,VWS V14.00,2013-03-28 18:53:00,
2013-03-28 13:58:00,57.6,34.7,30.21,East,97,0.0,13.0,42,0.00,,,0.00,VWS V14.00,2013-03-28 18:58:00,
2013-03-28 14:03:00,58.1,33.9,30.21,East,101,5.0,13.0,40,0.00,,,0.00,VWS V14.00,2013-03-28 19:03:00,
2013-03-28 14:08:00,58.4,33.6,30.20,ESE,103,2.0,9.0,39,0.00,,,0.00,VWS V14.00,2013-03-28 19:08:00,
2013-03-28 14:13:00,58.8,33.9,30.20,WSW,256,5.0,9.0,39,0.00,,,0.00,VWS V14.00,2013-03-28 19:13:00,
2013-03-28 14:18:00,59.0,34.1,30.19,NE,52,0.0,13.0,39,0.00,,,0.00,VWS V14.00,2013-03-28 19:18:00,
2013-03-28 14:23:00,59.0,34.1,30.19,ENE,68,0.0,14.0,39,0.00,,,0.00,VWS V14.00,2013-03-28 19:23:00,
2013-03-28 14:28:00,59.0,34.1,30.19,SE,146,6.0,14.0,39,0.00,,,0.00,VWS V14.00,2013-03-28 19:28:00,
2013-03-28 14:33:00,59.0,34.7,30.19,East,99,4.0,14.0,40,0.00,,,0.00,VWS V14.00,2013-03-28 19:33:00,
2013-03-28 14:38:00,59.0,34.1,30.19,SE,136,7.0,8.0,39,0.00,,,0.00,VWS V14.00,2013-03-28 19:38:00,
2013-03-28 14:43:00,59.0,32.8,30.19,SSE,160,5.0,10.0,37,0.00,,,0.00,VWS V14.00,2013-03-28 19:43:00,
2013-03-28 14:48:00,58.7,31.8,30.19,NE,37,2.0,10.0,36,0.00,,,0.00,VWS V14.00,2013-03-28 19:48:00,
2013-03-28 14:53:00,59.0,32.1,30.19,East,86,0.0,10.0,36,0.00,,,0.00,VWS V14.00,2013-03-28 19:53:00,
2013-03-28 14:58:00,59.3,32.4,30.18,ESE,103,6.0,11.0,36,0.00,,,0.00,VWS V14.00,2013-03-28 19:58:00,
2013-03-28 15:03:00,59.0,33.5,30.18,ESE,110,4.0,11.0,38,0.00,,,0.00,VWS V14.00,2013-03-28 20:03:00,
2013-03-28 15:08:00,59.1,32.9,30.18,East,99,9.0,9.0,37,0.00,,,0.00,VWS V14.00,2013-03-28 20:08:00,
2013-03-28 15:13:00,59.5,32.5,30.18,ENE,59,4.0,10.0,36,0.00,,,0.00,VWS V14.00,2013-03-28 20:13:00,
2013-03-28 15:18:00,59.9,33.6,30.17,SE,128,12.0,12.0,37,0.00,,,0.00,VWS V14.00,2013-03-28 20:18:00,
2013-03-28 15:23:00,60.1,32.4,30.17,ENE,75,0.0,14.0,35,0.00,,,0.00,VWS V14.00,2013-03-28 20:23:00,
2013-03-28 15:28:00,60.8,33.7,30.16,East,80,4.0,14.0,36,0.00,,,0.00,VWS V14.00,2013-03-28 20:28:00,
2013-03-28 15:33:00,60.6,32.8,30.16,ESE,109,10.0,14.0,35,0.00,,,0.00,VWS V14.00,2013-03-28 20:33:00,
2013-03-28 15:38:00,60.4,33.3,30.16,ENE,63,0.0,7.0,36,0.00,,,0.00,VWS V14.00,2013-03-28 20:38:00,
2013-03-28 15:43:00,59.9,32.9,30.16,East,81,5.0,13.0,36,0.00,,,0.00,VWS V14.00,2013-03-28 20:43:00,
2013-03-28 15:48:00,60.0,33.0,30.16,SE,126,6.0,14.0,36,0.00,,,0.00,VWS V14.00,2013-03-28 20:48:00,
2013-03-28 15:53:00,60.2,33.2,30.16,SE,124,0.0,14.0,36,0.00,,,0.00,VWS V14.00,2013-03-28 20:53:00,
2013-03-28 15:58:00,60.3,33.3,30.15,ESE,105,3.0,15.0,36,0.00,,,0.00,VWS V14.00,2013-03-28 20:58:00,
2013-03-28 16:03:00,60.5,32.7,30.15,East,88,4.0,16.0,35,0.00,,,0.00,VWS V14.00,2013-03-28 21:03:00,
2013-03-28 16:08:00,61.1,34.0,30.16,ESE,121,0.0,10.0,36,0.00,,,0.00,VWS V14.00,2013-03-28 21:08:00,
2013-03-28 16:13:00,61.2,32.6,30.15,ESE,110,12.0,12.0,34,0.00,,,0.00,VWS V14.00,2013-03-28 21:13:00,
2013-03-28 16:18:00,60.9,32.4,30.15,SSE,161,2.0,12.0,34,0.00,,,0.00,VWS V14.00,2013-03-28 21:18:00,
2013-03-28 16:23:00,61.0,33.2,30.15,East,94,2.0,13.0,35,0.00,,,0.00,VWS V14.00,2013-03-28 21:23:00,
2013-03-28 16:27:00,60.9,33.1,30.14,ESE,113,5.0,13.0,35,0.00,,,0.00,VWS V14.00,2013-03-28 21:27:00,
2013-03-28 16:32:00,60.5,32.7,30.15,East,87,1.0,13.0,35,0.00,,,0.00,VWS V14.00,2013-03-28 21:32:00,
2013-03-28 16:37:00,60.3,31.8,30.14,East,82,8.0,10.0,34,0.00,,,0.00,VWS V14.00,2013-03-28 21:37:00,
2013-03-28 16:42:00,59.8,32.1,30.15,ESE,111,0.0,11.0,35,0.00,,,0.00,VWS V14.00,2013-03-28 21:42:00,
2013-03-28 16:47:00,60.0,33.0,30.15,ESE,112,4.0,11.0,36,0.00,,,0.00,VWS V14.00,2013-03-28 21:47:00,
2013-03-28 16:52:00,60.2,31.8,30.14,ESE,113,4.0,12.0,34,0.00,,,0.00,VWS V14.00,2013-03-28 21:52:00,
2013-03-28 16:58:00,59.9,32.2,30.14,East,87,6.0,12.0,35,0.00,,,0.00,VWS V14.00,2013-03-28 21:58:00,
2013-03-28 17:03:00,59.8,31.4,30.14,ESE,123,5.0,13.0,34,0.00,,,0.00,VWS V14.00,2013-03-28 22:03:00,
2013-03-28 17:08:00,59.6,31.9,30.15,ESE,119,8.0,10.0,35,0.00,,,0.00,VWS V14.00,2013-03-28 22:08:00,
2013-03-28 17:13:00,59.6,31.9,30.14,NE,43,10.0,15.0,35,0.00,,,0.00,VWS V14.00,2013-03-28 22:13:00,
2013-03-28 17:17:00,59.6,31.9,30.14,ESE,108,5.0,15.0,35,0.00,,,0.00,VWS V14.00,2013-03-28 22:17:00,
2013-03-28 17:22:00,59.6,31.9,30.14,SE,128,5.0,15.0,35,0.00,,,0.00,VWS V14.00,2013-03-28 22:22:00,
2013-03-28 17:27:00,59.5,31.9,30.14,East,88,4.0,15.0,35,0.00,,,0.00,VWS V14.00,2013-03-28 22:27:00,
2013-03-28 17:32:00,59.4,31.8,30.14,SSE,168,4.0,15.0,35,0.00,,,0.00,VWS V14.00,2013-03-28 22:32:00,
2013-03-28 17:37:00,59.2,31.6,30.14,ESE,103,10.0,14.0,35,0.00,,,0.00,VWS V14.00,2013-03-28 22:37:00,
2013-03-28 17:42:00,59.0,32.1,30.14,East,80,7.0,14.0,36,0.00,,,0.00,VWS V14.00,2013-03-28 22:42:00,
2013-03-28 17:47:00,59.0,32.1,30.14,East,90,6.0,14.0,36,0.00,,,0.00,VWS V14.00,2013-03-28 22:47:00,
2013-03-28 17:52:00,58.5,34.3,30.14,ENE,77,4.0,14.0,40,0.00,,,0.00,VWS V14.00,2013-03-28 22:52:00,
2013-03-28 17:57:00,57.9,34.4,30.15,NE,42,6.0,14.0,41,0.00,,,0.00,VWS V14.00,2013-03-28 22:57:00,
2013-03-28 18:02:00,57.6,34.1,30.15,ESE,110,11.0,14.0,41,0.00,,,0.00,VWS V14.00,2013-03-28 23:02:00,
2013-03-28 18:07:00,57.3,33.8,30.15,ESE,104,10.0,13.0,41,0.00,,,0.00,VWS V14.00,2013-03-28 23:07:00,
2013-03-28 18:12:00,57.1,33.6,30.15,ESE,109,5.0,15.0,41,0.00,,,0.00,VWS V14.00,2013-03-28 23:12:00,
2013-03-28 18:17:00,57.0,34.2,30.15,East,89,8.0,15.0,42,0.00,,,0.00,VWS V14.00,2013-03-28 23:17:00,
2013-03-28 18:22:00,56.9,34.7,30.15,East,79,6.0,15.0,43,0.00,,,0.00,VWS V14.00,2013-03-28 23:22:00,
2013-03-28 18:27:00,56.9,34.1,30.15,ESE,111,10.0,15.0,42,0.00,,,0.00,VWS V14.00,2013-03-28 23:27:00,
2013-03-28 18:32:00,56.8,34.6,30.15,ESE,109,10.0,15.0,43,0.00,,,0.00,VWS V14.00,2013-03-28 23:32:00,
2013-03-28 18:37:00,56.8,34.6,30.16,ENE,78,4.0,6.0,43,0.00,,,0.00,VWS V14.00,2013-03-28 23:37:00,
2013-03-28 18:42:00,56.6,34.4,30.16,East,85,9.0,14.0,43,0.00,,,0.00,VWS V14.00,2013-03-28 23:42:00,
2013-03-28 18:47:00,56.4,34.2,30.16,East,81,9.0,14.0,43,0.00,,,0.00,VWS V14.00,2013-03-28 23:47:00,
2013-03-28 18:52:00,56.2,34.0,30.16,ENE,78,6.0,14.0,43,0.00,,,0.00,VWS V14.00,2013-03-28 23:52:00,
2013-03-28 18:57:00,56.0,33.8,30.16,ENE,68,3.0,14.0,43,0.00,,,0.00,VWS V14.00,2013-03-28 23:57:00,
2013-03-28 19:02:00,55.9,33.8,30.16,East,80,4.0,14.0,43,0.00,,,0.00,VWS V14.00,2013-03-29 00:02:00,
2013-03-28 19:07:00,55.9,34.3,30.16,East,83,2.0,8.0,44,0.00,,,0.00,VWS V14.00,2013-03-29 00:07:00,
2013-03-28 19:12:00,55.8,34.2,30.16,East,91,4.0,9.0,44,0.00,,,0.00,VWS V14.00,2013-03-29 00:12:00,
2013-03-28 19:17:00,55.6,34.0,30.17,East,83,5.0,9.0,44,0.00,,,0.00,VWS V14.00,2013-03-29 00:17:00,
2013-03-28 19:22:00,55.4,33.9,30.17,East,82,1.0,9.0,44,0.00,,,0.00,VWS V14.00,2013-03-29 00:22:00,
2013-03-28 19:27:00,55.0,33.5,30.17,East,90,0.0,9.0,44,0.00,,,0.00,VWS V14.00,2013-03-29 00:27:00,
2013-03-28 19:32:00,54.8,33.9,30.17,ENE,72,1.0,9.0,45,0.00,,,0.00,VWS V14.00,2013-03-29 00:32:00,
2013-03-28 19:37:00,54.5,34.2,30.17,ENE,78,0.0,0.0,46,0.00,,,0.00,VWS V14.00,2013-03-29 00:37:00,
2013-03-28 19:42:00,54.2,33.3,30.17,East,90,0.0,1.0,45,0.00,,,0.00,VWS V14.00,2013-03-29 00:42:00,
2013-03-28 19:47:00,53.9,33.6,30.17,ENE,73,3.0,4.0,46,0.00,,,0.00,VWS V14.00,2013-03-29 00:47:00,
2013-03-28 19:52:00,53.5,33.2,30.17,ESE,113,2.0,5.0,46,0.00,,,0.00,VWS V14.00,2013-03-29 00:52:00,
2013-03-28 19:57:00,53.2,33.0,30.17,East,91,0.0,5.0,46,0.00,,,0.00,VWS V14.00,2013-03-29 00:57:00,
2013-03-28 20:02:00,52.9,33.2,30.18,ENE,71,0.0,6.0,47,0.00,,,0.00,VWS V14.00,2013-03-29 01:02:00,
2013-03-28 20:07:00,52.5,32.9,30.18,ENE,69,5.0,5.0,47,0.00,,,0.00,VWS V14.00,2013-03-29 01:07:00,
2013-03-28 20:12:00,52.3,32.7,30.18,ENE,75,3.0,7.0,47,0.00,,,0.00,VWS V14.00,2013-03-29 01:12:00,
2013-03-28 20:17:00,52.2,32.6,30.18,East,88,0.0,7.0,47,0.00,,,0.00,VWS V14.00,2013-03-29 01:17:00,
2013-03-28 20:22:00,52.0,32.4,30.18,ENE,73,2.0,7.0,47,0.00,,,0.00,VWS V14.00,2013-03-29 01:22:00,
2013-03-28 20:27:00,51.8,32.2,30.18,East,90,0.0,7.0,47,0.00,,,0.00,VWS V14.00,2013-03-29 01:27:00,
2013-03-28 20:32:00,51.7,32.1,30.19,ENE,71,0.0,7.0,47,0.00,,,0.00,VWS V14.00,2013-03-29 01:32:00,
2013-03-28 20:37:00,51.4,31.9,30.19,ENE,69,0.0,0.0,47,0.00,,,0.00,VWS V14.00,2013-03-29 01:37:00,
2013-03-28 20:42:00,51.2,31.7,30.19,East,86,3.0,5.0,47,0.00,,,0.00,VWS V14.00,2013-03-29 01:42:00,
2013-03-28 20:47:00,51.1,32.1,30.19,East,84,0.0,5.0,48,0.00,,,0.00,VWS V14.00,2013-03-29 01:47:00,
2013-03-28 20:52:00,50.9,31.9,30.19,East,90,2.0,5.0,48,0.00,,,0.00,VWS V14.00,2013-03-29 01:52:00,
2013-03-28 20:57:00,50.7,31.7,30.19,ENE,74,3.0,9.0,48,0.00,,,0.00,VWS V14.00,2013-03-29 01:57:00,
2013-03-28 21:02:00,50.6,31.6,30.19,East,96,5.0,9.0,48,0.00,,,0.00,VWS V14.00,2013-03-29 02:02:00,
2013-03-28 21:07:00,50.5,31.6,30.19,East,84,3.0,7.0,48,0.00,,,0.00,VWS V14.00,2013-03-29 02:07:00,
2013-03-28 21:12:00,50.4,31.5,30.20,East,79,4.0,7.0,48,0.00,,,0.00,VWS V14.00,2013-03-29 02:12:00,
2013-03-28 21:17:00,50.3,31.9,30.20,ESE,106,4.0,7.0,49,0.00,,,0.00,VWS V14.00,2013-03-29 02:17:00,
2013-03-28 21:22:00,50.1,31.7,30.20,ESE,123,4.0,7.0,49,0.00,,,0.00,VWS V14.00,2013-03-29 02:22:00,
2013-03-28 21:27:00,49.9,31.5,30.20,East,79,4.0,7.0,49,0.00,,,0.00,VWS V14.00,2013-03-29 02:27:00,
2013-03-28 21:32:00,49.8,31.4,30.20,ESE,102,3.0,9.0,49,0.00,,,0.00,VWS V14.00,2013-03-29 02:32:00,
2013-03-28 21:37:00,49.6,31.7,30.20,ESE,105,6.0,9.0,50,0.00,,,0.00,VWS V14.00,2013-03-29 02:37:00,
2013-03-28 21:42:00,49.5,31.6,30.20,East,83,5.0,11.0,50,0.00,,,0.00,VWS V14.00,2013-03-29 02:42:00,
2013-03-28 21:47:00,49.2,31.4,30.20,East,90,6.0,11.0,50,0.00,,,0.00,VWS V14.00,2013-03-29 02:47:00,
2013-03-28 21:52:00,49.0,31.2,30.20,East,84,2.0,11.0,50,0.00,,,0.00,VWS V14.00,2013-03-29 02:52:00,
2013-03-28 21:57:00,48.7,31.4,30.20,ENE,63,1.0,11.0,51,0.00,,,0.00,VWS V14.00,2013-03-29 02:57:00,
2013-03-28 22:02:00,48.5,31.2,30.20,ENE,72,4.0,11.0,51,0.00,,,0.00,VWS V14.00,2013-03-29 03:02:00,
2013-03-28 22:07:00,48.3,31.0,30.20,East,90,0.0,7.0,51,0.00,,,0.00,VWS V14.00,2013-03-29 03:07:00,
2013-03-28 22:12:00,48.1,30.8,30.20,East,83,4.0,9.0,51,0.00,,,0.00,VWS V14.00,2013-03-29 03:12:00,
2013-03-28 22:17:00,47.8,31.0,30.20,East,94,0.0,9.0,52,0.00,,,0.00,VWS V14.00,2013-03-29 03:17:00,
2013-03-28 22:22:00,47.5,30.8,30.21,East,95,3.0,9.0,52,0.00,,,0.00,VWS V14.00,2013-03-29 03:22:00,
2013-03-28 22:27:00,47.3,30.6,30.21,East,80,0.0,9.0,52,0.00,,,0.00,VWS V14.00,2013-03-29 03:27:00,
2013-03-28 22:32:00,47.1,30.9,30.21,East,90,0.0,9.0,53,0.00,,,0.00,VWS V14.00,2013-03-29 03:32:00,
2013-03-28 22:37:00,46.9,30.7,30.20,East,92,3.0,4.0,53,0.00,,,0.00,VWS V14.00,2013-03-29 03:37:00,
2013-03-28 22:42:00,46.6,30.4,30.20,East,100,5.0,6.0,53,0.00,,,0.00,VWS V14.00,2013-03-29 03:42:00,
2013-03-28 22:47:00,46.3,30.6,30.20,ESE,104,4.0,7.0,54,0.00,,,0.00,VWS V14.00,2013-03-29 03:47:00,
2013-03-28 22:52:00,46.0,30.3,30.20,East,87,4.0,7.0,54,0.00,,,0.00,VWS V14.00,2013-03-29 03:52:00,
2013-03-28 22:57:00,45.9,30.2,30.20,East,97,3.0,7.0,54,0.00,,,0.00,VWS V14.00,2013-03-29 03:57:00,
2013-03-28 23:00:00,45.8,30.6,30.20,East,91,1.0,7.0,55,0.00,,,0.00,VWS V14.00,2013-03-29 04:00:00,
2013-03-28 23:01:00,45.8,30.6,30.20,East,99,0.0,7.0,55,0.00,,,0.00,VWS V14.00,2013-03-29 04:01:00,
2013-03-28 23:06:00,45.7,30.5,30.20,East,90,2.0,4.0,55,0.00,,,0.00,VWS V14.00,2013-03-29 04:06:00,
2013-03-28 23:11:00,45.6,30.4,30.20,East,93,6.0,7.0,55,0.00,,,0.00,VWS V14.00,2013-03-29 04:11:00,
2013-03-28 23:16:00,45.6,30.4,30.20,ESE,107,0.0,10.0,55,0.00,,,0.00,VWS V14.00,2013-03-29 04:16:00,
2013-03-28 23:21:00,45.6,30.4,30.20,East,96,4.0,10.0,55,0.00,,,0.00,VWS V14.00,2013-03-29 04:21:00,
2013-03-28 23:26:00,45.5,30.3,30.20,ESE,102,2.0,10.0,55,0.00,,,0.00,VWS V14.00,2013-03-29 04:26:00,
2013-03-28 23:31:00,45.4,30.2,30.20,East,88,1.0,10.0,55,0.00,,,0.00,VWS V14.00,2013-03-29 04:31:00,
2013-03-28 23:36:00,45.3,30.1,30.20,ESE,105,3.0,5.0,55,0.00,,,0.00,VWS V14.00,2013-03-29 04:36:00,
2013-03-28 23:41:00,45.3,30.1,30.20,ESE,121,0.0,6.0,55,0.00,,,0.00,VWS V14.00,2013-03-29 04:41:00,
2013-03-28 23:46:00,45.1,30.4,30.20,East,93,0.0,6.0,56,0.00,,,0.00,VWS V14.00,2013-03-29 04:46:00,
2013-03-28 23:51:00,45.0,30.3,30.20,ESE,102,0.0,6.0,56,0.00,,,0.00,VWS V14.00,2013-03-29 04:51:00,
2013-03-28 23:56:00,44.9,30.2,30.20,ESE,115,0.0,6.0,56,0.00,,,0.00,VWS V14.00,2013-03-29 04:56:00,